Regional Weather Roundup
Issued by NWS

Home | Current Version | Previous Version | Text Only | Print | Product List | Glossary On
Versions: 1 2 3 4 5 6 7 8 9 10 11 12 13 14 15 16 17 18 19 20 21 22 23 24 25 26 27 28 29 30 31 32 33 34 35 36 37 38 39 40 41 42 43 44 45 46 47 48 49 50
000
ASUS44 KMEG 300110
RWRTN
TENNESSEE HOURLY STATE WEATHER ROUNDUP
NATIONAL WEATHER SERVICE MEMPHIS TN
800 PM CDT WED MAR 29 2017

TNZ002-004-019-021-049-052-054-088>092-300200-
WEST TENNESSEE

CITY           SKY/WX    TMP DP  RH WIND       PRES   REMARKS
MEMPHIS INTL   CLOUDY    76  56  49 S9        29.82R
NWS MEMPHIS      N/A     76 N/A N/A MISG        N/A
JACKSON        CLOUDY    77  58  51 S6        29.84R
DYERSBURG      CLOUDY    75  59  57 SE3       29.83R
SOMERVILLE     PTCLDY    75  55  50 S5        29.83R
BOLIVAR        PTCLDY    75  59  57 SE7       29.83
PARIS          CLEAR     70  55  60 S8        29.86R
HUNTINGDON     PTCLDY    73  57  56 S6        29.85R
SAVANNAH       PTCLDY    75  55  50 S3        29.86R
$$

TNZ008-025-027-028-033-062-065-066-300200-
NORTH MIDDLE TENNESSEE

CITY           SKY/WX    TMP DP  RH WIND       PRES   REMARKS
NASHVILLE      MOCLDY    75  58  55 SE7       29.88F
PORTLAND       PTCLDY    72  55  56 CALM      29.90R
CLARKSVILLE    MOCLDY    70  57  63 E7        29.86S
SMYRNA         PTCLDY    72  60  66 SE7       29.89F
COOKEVILLE     PTCLDY    68  55  64 CALM      29.92F
GALLATIN       MOCLDY    72  57  60 E3        29.91S
CROSSVILLE     CLEAR     68  52  56 SE3       30.00S
$$

TNZ061-075-076-078-094-096-097-300200-
SOUTH MIDDLE TENNESSEE

CITY           SKY/WX    TMP DP  RH WIND       PRES   REMARKS
FAYETTEVILLE   PTCLDY    72  61  68 SE8       29.91S
TULLAHOMA      CLEAR     73  55  53 SE5       29.93F
WINCHESTER     CLEAR     72  57  60 SE6       29.93F
MCMINNVILLE    CLEAR     68  61  77 CALM      29.93F
COLUMBIA       CLEAR     75  61  60 CALM      29.87R
SHELBYVILLE    CLEAR     73  61  64 SE6       29.91F
$$

TNZ017-018-042-046-047-300200-
NORTHEAST TENNESSEE

CITY           SKY/WX    TMP DP  RH WIND       PRES   REMARKS
TRI CITIES     CLEAR     65  48  54 CALM      30.03S
ELIZABETHTON   CLEAR     59  48  67 CALM      30.03S
$$

TNZ012-013-036-069-073-074-300200-
CENTRAL EAST TENNESSEE

CITY           SKY/WX    TMP DP  RH WIND       PRES   REMARKS
KNOXVILLE      CLEAR     70  50  49 E5        29.96F
OAK RIDGE      CLEAR     70  51  51 CALM      29.98F
DOWNTOWN KNOXV CLEAR     63  54  72 CALM      29.97F
GATLINBURG     CLEAR     64  46  52 CALM      29.98F
MORRISTOWN     CLEAR     68  50  52 CALM      30.00S
JACKSBORO      CLEAR     64  52  63 NE5       30.01S
$$

TNZ083-085-099-300200-
SOUTHEAST TENNESSEE

CITY           SKY/WX    TMP DP  RH WIND       PRES   REMARKS
CHATTANOOGA    PTCLDY    75  55  49 E7        29.94S
$$

SKY/WX REPORTED AS FAIR MEANS FEW OR NO CLOUDS BELOW
12 THOUSAND FEET.





USA.gov is the U.S. government's official web portal to all federal, state and local government web resources and services.